DW9235 Weather Reports


time (UTC)temp
C
wind
direction
speed
KPH
gust
KPH
rain 1hr
cm
rain 24hr
cm
rain mn
cm
humidity
%
barometer
mb
20260505171548 0 78 3.2 9.7 0.05 0.23 0.13 93 1010.0
20260505170046 0 52 1.6 14.5 0.03 0.20 0.10 93 1009.9
20260505164549 0 51 1.6 4.8 0.03 0.20 0.10 93 1009.7
20260505163045 0 47 3.2 11.3 0.00 0.18 0.08 93 1009.6
20260505161545 0 360 3.2 12.9 0.03 0.18 0.08 93 1009.6
20260505153037 0 9 1.6 14.5 0.03 0.18 0.08 93 1009.3
20260505151533 0 34 4.8 9.7 0.00 0.15 0.05 93 1009.2
20260505124515 2 231 4.8 9.7 0.00 0.15 0.05 91 1007.6
20260505123006 2 195 4.8 9.7 0.00 0.15 0.05 91 1007.3
20260505121512 2 192 4.8 9.7 0.00 0.15 0.05 89 1006.9
20260505120001 3 194 8.0 11.3 0.00 0.15 0.05 86 1006.6
20260505114601 3 84 1.6 6.4 0.00 0.15 0.05 85 1006.4
20260505113116 3 294 8.0 16.1 0.00 0.15 0.05 85 1006.0
20260505111558 3 296 8.0 19.3 0.00 0.15 0.05 84 1006.0
20260505110120 3 256 11.3 17.7 0.00 0.15 0.05 84 1006.0
20260505101558 3 293 8.0 17.7 0.00 0.15 0.05 87 1005.9
20260505100051 3 300 6.4 11.3 0.00 0.15 0.05 90 1005.7
20260505094552 3 306 4.8 9.7 0.00 0.15 0.05 91 1005.7
20260505093054 3 296 3.2 8.0 0.00 0.15 0.05 91 1005.6
20260505091543 3 355 1.6 4.8 0.00 0.15 0.05 92 1005.7
20260505090044 3 311 3.2 8.0 0.00 0.15 0.05 92 1006.0
20260505084549 3 281 3.2 6.4 0.00 0.15 0.05 92 1006.5
20260505083043 3 144 0.0 4.8 0.00 0.15 0.05 92 1006.7
20260505081534 3 144 1.6 3.2 0.00 0.15 0.05 92 1006.9
20260505080045 3 167 1.6 4.8 0.00 0.15 0.05 92 1006.8
20260505074532 3 168 3.2 6.4 0.03 0.15 0.05 92 1007.0
20260505073034 4 138 1.6 8.0 0.03 0.15 0.05 92 1007.1
20260505071537 4 92 1.6 8.0 0.03 0.15 0.05 92 1007.4
20260505070026 4 104 0.0 4.8 0.05 0.15 0.05 92 1007.6
20260505064528 4 101 1.6 4.8 0.05 0.13 0.03 92 1007.4
20260505063024 5 139 3.2 8.0 0.05 0.13 0.03 92 1007.3
20260505061519 5 76 0.0 11.3 0.05 0.13 0.03 91 1007.7
20260505060019 5 105 4.8 8.0 0.03 0.10 0.10 90 1007.8
20260505054517 5 33 0.0 6.4 0.00 0.08 0.08 89 1008.0
20260505053019 5 49 0.0 4.8 0.00 0.08 0.08 87 1007.8
20260505051515 5 77 0.0 3.2 0.00 0.08 0.08 86 1007.7
20260505041513 5 71 6.4 12.9 0.00 0.08 0.08 85 1006.8
20260505040012 5 67 4.8 16.1 0.00 0.08 0.08 87 1006.7
20260505034512 5 98 3.2 14.5 0.00 0.08 0.08 86 1006.9
20260505033011 5 90 9.7 17.7 0.00 0.08 0.08 85 1006.7
20260505031512 5 87 8.0 14.5 0.00 0.08 0.08 83 1006.9
20260505030009 5 57 3.2 11.3 0.00 0.08 0.08 84 1006.9
20260505024509 5 30 3.2 11.3 0.03 0.08 0.08 84 1006.5
20260505023008 5 59 1.6 9.7 0.08 0.08 0.08 83 1006.1
20260505021512 5 92 4.8 16.1 0.08 0.08 0.08 82 1006.3
20260505020014 6 102 4.8 16.1 0.08 0.08 0.08 79 1006.5
20260505014504 7 66 6.4 20.9 0.05 0.05 0.05 74 1006.1
20260505013003 8 95 22.5 37.0 0.00 0.00 0.00 62 1006.4
20260505011502 10 28 4.8 14.5 0.00 0.00 0.00 52 1005.7
20260505010001 10 77 8.0 17.7 0.00 0.00 0.00 49 1004.8
20260505004504 11 109 12.9 25.7 0.00 0.00 0.00 47 1004.4
20260505003000 11 128 11.3 17.7 0.00 0.00 0.00 46 1004.3
20260505001600 12 105 6.4 17.7 0.00 0.00 0.00 43 1004.2
20260505000059 12 106 14.5 25.7 0.00 0.00 0.00 41 1004.2
20260504234559 12 101 6.4 22.5 0.00 0.00 0.00 44 1004.2
20260504233059 12 94 16.1 30.6 0.00 0.00 0.00 41 1004.3
20260504231559 13 140 3.2 17.7 0.00 0.00 0.00 39 1004.1
20260504230058 13 61 3.2 19.3 0.00 0.00 0.00 36 1003.9
20260504224558 13 284 0.0 8.0 0.00 0.00 0.00 34 1003.8
20260504223057 13 257 4.8 11.3 0.00 0.00 0.00 36 1003.8
20260504221556 13 248 4.8 11.3 0.00 0.00 0.00 36 1003.7
20260504220056 13 234 14.5 43.5 0.00 0.00 0.00 40 1003.9
20260504214604 15 265 9.7 12.9 0.00 0.00 0.00 31 1003.8
20260504213056 15 101 9.7 17.7 0.00 0.00 0.00 29 1003.5
20260504211554 16 109 9.7 20.9 0.00 0.00 0.00 25 1003.5
20260504204608 17 236 9.7 19.3 0.00 0.00 0.00 23 1003.4
20260504203106 17 59 6.4 24.1 0.00 0.00 0.00 24 1003.6
20260504201546 16 150 3.2 11.3 0.00 0.00 0.00 25 1003.8
20260504200047 16 96 4.8 8.0 0.00 0.00 0.00 25 1003.8
20260504194544 15 184 8.0 14.5 0.00 0.00 0.00 28 1003.9
20260504193044 16 163 9.7 16.1 0.00 0.00 0.00 25 1003.8
20260504191541 16 135 4.8 11.3 0.00 0.00 0.00 26 1004.0
20260504190039 16 101 3.2 16.1 0.00 0.00 0.00 29 1004.2
20260504184537 15 114 8.0 22.5 0.00 0.00 0.00 26 1004.6
20260504183036 15 76 6.4 12.9 0.00 0.00 0.00 26 1005.1
20260504181534 16 298 0.0 9.7 0.00 0.00 0.00 25 1005.0
20260504180031 16 360 3.2 11.3 0.00 0.00 0.00 26 1005.2
20260504174528 16 70 4.8 14.5 0.00 0.00 0.00 27 1005.6
20260504173024 16 339 8.0 17.7 0.00 0.00 0.00 28 1006.0